Location: Sungai Jaoh
(2.9167°N, 113.9167°E)
Time: 18:36:58
(UTC+00:00)

COSMOS 2251 DEB - Visible Passes

Search period start: 22 June 2021 00:00
Search period end: 02 July 2021 00:00
Orbit: 760 x 885 km, 74.0° (Epoch: 21 June)

Date Brightness Start Highest point End Pass type
(mag) Time Alt. Az. Time Alt. Az. Time Alt. Az.
23 Jun ? 13:26:47 18° NNW 13:26:47 18° NNW 13:28:17 10° NNW visible
24 Jun ? 13:04:12 36° NW 13:04:12 36° NW 13:07:54 10° N visible
25 Jun ? 12:40:20 34° SW 12:42:21 56° WNW 12:47:25 10° N visible
26 Jun ? 12:16:30 10° SSW 12:21:41 74° WNW 12:26:51 10° N visible
27 Jun ? 11:55:49 10° S 12:01:01 85° ESE 12:06:13 10° NNE visible
28 Jun ? 11:35:13 10° S 11:40:21 64° ESE 11:45:29 10° NNE visible
29 Jun ? 11:14:41 10° S 11:19:42 48° ESE 11:24:40 10° NNE visible
30 Jun ? 10:54:16 10° SSE 10:59:01 37° ESE 11:03:46 10° NE visible
30 Jun ? 12:40:12 10° W 12:42:00 12° WNW 12:43:48 10° NW visible
30 Jun ? 21:54:37 10° ENE 21:55:25 10° ENE 21:56:14 10° E visible
01 Jul ? 12:18:15 10° WSW 12:21:18 16° WNW 12:24:22 10° NW visible
